Location: Pitton
(51.0667°N, 1.7000°W)
Time: 01:47:09
(UTC+00:00)

Cosmos 1544 Rocket - Pass Details

Date: 17 September 2019
Orbit: 604 x 632 km, 82.5° (Epoch: 15 October)

Event Time Altitude Azimuth Distance (km) Brightness Sun altitude
Exits shadow 20:00:47 31° 122° (ESE) 1,122 4.3 -16.5°
Maximum altitude 20:01:53 35° 91° (E) 1,018 4.2 -16.7°
Drops below altitude 10° 20:05:59 10° 26° (NNE) 2,024 6.2 -17.2°
Sets 20:08:21 0° 17° (NNE) 2,935 7.2 -17.6°
